Wetbulb
76.39 76.97 77.07 77.46 77.84 78.45 78.56 79.12 77.22 78.12 78.82 79.11 78.67 78.41 78.39 78.25 78.17 77.68 77.87 79.38 78.34 78.54 78.15 78.57 79.12 78.83 78.57 78.05 77.41 77.15 76.76 76.59 76.28 76.12 75.84 75.69 75.62 75.77 75.84 75.56 75.17 74.94 74.33
76.45 76.02 76.30 76.51 76.74 78.17 78.26 78.57 78.78 79.39 77.99 79.03 77.89 78.27 78.18 78.17 78.57 79.03 78.34 79.21 78.98 78.72 78.76 78.73 78.39 78.57 77.88 77.62 77.64 77.44 76.97 76.48 76.50 76.34 76.14 75.76 75.39 75.64 75.74 75.55 75.59 75.47 75.12
77.44 77.66 76.57 76.43 77.13 78.20 79.08 79.27 79.35 79.22 77.84 78.73 78.50 78.24 78.71 78.51 78.16 79.20 79.44 78.94 79.68 78.44 78.48 78.61 78.78 78.65 77.87 77.35 77.20 77.22 77.26 76.95 76.83 76.61 76.37 76.17 75.64 75.57 75.34 75.41 75.19 75.50 75.14
77.85 77.63 76.75 76.95 77.91 78.35 78.18 77.58 77.59 77.37 77.76 77.66 77.75 78.02 78.10 78.12 78.14 78.22 78.42 78.84 78.47 78.88 78.73 78.98 78.71 78.40 78.18 77.40 77.46 77.27 77.57 77.13 77.10 76.80 76.78 76.20 76.00 75.75 75.40 75.17 75.37 75.14 75.17
77.96 78.00 77.42 77.40 78.44 77.85 77.83 77.87 77.58 77.80 77.52 76.44 76.50 77.35 77.77 77.54 77.99 77.76 78.05 78.42 78.77 78.57 79.11 78.31 78.23 77.95 77.21 76.97 77.03 77.17 76.80 76.71 76.90 76.37 76.09 75.89 75.92 76.02 75.50 75.57 75.37 75.17 75.00
78.11 78.17 77.28 77.54 78.37 77.63 77.87 77.79 78.69 77.16 77.90 78.27 75.63 76.10 77.40 77.76 77.63 77.76 77.73 78.40 79.22 79.14 78.44 79.12 78.15 76.90 77.74 77.61 77.76 77.39 76.92 77.01 76.39 76.09 75.79 75.51 75.39 75.67 75.92 75.65 75.25 75.10 75.07
77.98 78.22 77.11 77.07 77.99 77.90 78.62 77.93 78.29 77.73 76.06 77.39 75.68 74.92 75.89 77.11 77.22 77.59 77.45 77.54 77.91 78.81 78.82 78.39 78.92 78.11 77.35 77.47 77.40 77.66 77.41 76.04 75.73 75.14 74.89 74.39 74.16 74.72 74.92 74.90 74.79 74.40 74.32
77.89 77.72 77.83 77.31 77.32 77.15 79.22 77.77 77.71 75.62 75.15 77.31 74.35 73.74 70.83 73.55 75.28 75.60 76.56 76.41 76.73 77.73 77.76 78.74 79.00 78.90 78.26 78.03 77.53 77.46 77.45 76.60 75.70 74.83 74.15 74.42 74.52 74.86 74.22 73.97 73.18 72.56 72.48
78.16 78.05 78.11 77.75 77.68 77.86 76.75 80.71 78.42 77.11 73.54 76.30 77.45 74.29 70.14 69.88 72.69 74.92 75.42 75.67 76.05 76.08 77.09 77.49 78.41 79.07 79.40 78.65 78.55 77.56 77.05 76.28 76.34 74.95 74.17 73.92 74.63 74.59 73.54 72.46 72.09 71.89 71.64
78.26 78.19 78.11 78.14 78.05 77.13 78.97 80.21 77.28 77.73 77.03 73.99 75.15 76.40 76.71 74.95 70.20 68.86 74.69 75.17 76.05 75.68 76.61 76.79 77.04 77.75 79.10 79.18 79.12 78.41 76.20 75.53 76.35 75.83 74.72 73.97 73.50 73.54 72.85 72.31 71.99 71.40 70.93
78.58 78.32 78.27 78.14 77.67 77.44 79.19 79.10 78.07 80.17 76.62 77.89 76.95 74.56 76.10 75.15 75.78 72.12 69.00 71.45 74.87 75.45 75.30 76.04 76.15 76.39 77.51 78.39 79.28 78.33 75.96 75.26 75.56 75.82 75.47 74.97 74.12 73.20 73.01 72.93 72.44 71.74 70.83
77.53 78.53 78.19 77.40 76.79 77.33 77.88 79.01 80.56 79.79 81.25 77.69 79.79 76.66 74.32 72.72 72.08 75.82 71.68 71.82 71.67 73.77 76.83 76.07 75.22 75.56 76.00 77.05 78.13 77.30 75.95 75.40 74.91 74.72 74.78 74.87 75.12 74.79 73.92 73.58 73.45 73.03 71.58
76.00 77.03 77.98 76.67 76.34 78.01 79.04 80.48 80.36 80.48 79.80 78.06 79.60 77.34 77.26 75.45 75.11 74.07 72.84 71.42 71.20 73.47 75.44 76.11 76.36 75.81 75.68 76.22 76.49 76.66 76.65 74.87 74.19 73.28 73.22 73.78 74.29 74.52 74.85 74.79 74.35 73.65 72.32
76.20 77.96 77.47 77.19 77.58 78.80 79.27 80.37 82.06 81.46 80.05 80.99 78.42 79.66 77.52 75.34 75.60 75.36 73.16 73.00 71.50 70.94 73.29 75.00 75.92 76.49 77.31 77.68 77.57 75.35 77.03 74.43 73.69 72.51 71.96 72.02 72.40 73.09 73.91 74.05 74.12 73.91 73.35
76.86 78.10 77.93 77.34 77.89 78.98 79.15 79.26 78.98 80.05 79.53 79.01 78.50 79.62 78.09 76.40 75.67 76.38 75.49 74.73 73.39 68.19 69.06 75.09 75.01 76.78 76.71 77.83 77.48 78.29 79.10 72.97 73.32 72.15 71.23 70.66 70.77 71.33 71.77 72.42 72.63 72.24 71.80
78.27 78.22 77.73 77.25 77.73 78.52 77.40 77.11 76.15 76.34 75.87 75.17 75.65 77.83 77.05 77.57 76.76 76.17 75.46 74.26 75.04 73.82 68.73 73.02 74.03 76.18 76.67 76.30 75.37 77.68 77.16 72.07 71.08 71.82 71.01 70.00 69.89 70.20 70.02 70.53 70.91 71.14 70.56
78.43 78.42 78.00 77.90 77.35 76.05 75.68 74.78 74.67 74.79 74.06 74.67 75.75 75.89 76.75 77.70 73.86 75.81 75.10 74.38 74.11 74.39 71.74 72.96 76.13 75.73 75.42 75.37 75.14 75.86 75.51 74.65 74.51 69.92 69.72 69.17 68.71 68.86 69.21 69.32 69.61 69.97 70.05
78.16 78.12 77.84 76.38 74.32 73.39 73.90 74.38 73.45 73.91 73.44 73.68 73.54 73.82 74.10 74.60 75.65 74.99 77.79 74.81 74.59 73.89 72.58 73.97 75.61 75.82 74.88 75.03 74.03 73.75 72.43 73.68 74.62 71.64 69.25 68.54 67.95 67.32 67.12 67.07 67.07 67.14 67.06
77.71 77.70 75.73 73.82 73.35 72.11 73.02 72.00 72.78 73.20 73.47 73.68 72.99 73.28 73.25 73.55 73.19 72.09 72.73 72.60 73.86 73.28 73.18 72.89 74.75 75.33 74.83 73.74 73.73 74.63 73.42 74.19 70.67 70.61 68.88 68.96 67.75 66.99 66.22 65.65 65.44 64.44 63.29
77.27 75.71 74.83 74.04 72.85 73.14 71.20 71.40 72.49 73.30 73.17 70.46 69.35 69.74 67.98 70.78 71.23 70.52 70.82 71.50 72.82 71.87 72.70 71.73 73.51 70.66 71.13 70.41 70.69 71.99 70.60 70.35 70.31 69.70 69.06 68.20 69.17 68.90 67.86 66.21 65.35 64.43 62.25
76.49 75.80 75.38 75.37 73.18 70.93 71.41 72.24 71.91 72.04 71.25 69.99 70.54 69.62 67.08 68.27 69.26 69.82 70.84 71.29 71.33 71.26 71.38 72.07 70.62 67.60 67.32 66.43 65.53 65.41 63.79 66.43 69.66 69.26 67.34 70.58 71.11 70.94 71.39 67.75 69.93 66.71 62.92
75.71 74.80 74.18 73.50 71.57 70.50 65.50 66.90 70.78 71.46 71.38 71.06 69.82 69.23 68.55 66.97 67.07 66.15 66.22 65.86 67.34 66.64 66.35 65.42 64.34 63.41 63.83 63.14 63.28 62.42 61.38 61.08 61.38 67.95 64.38 64.46 66.23 65.28 66.55 68.12 66.84 66.58 63.42
73.80 73.12 72.85 71.93 70.70 71.11 64.05 64.80 66.05 71.72 71.37 70.72 70.08 69.64 68.20 68.03 68.00 66.93 63.46 63.68 63.46 63.44 64.49 65.33 63.29 61.91 62.26 63.36 63.37 63.11 62.78 61.50 60.93 63.43 64.22 62.08 64.97 65.28 67.05 66.62 63.20 62.56 62.10
71.49 72.00 71.58 70.95 70.61 69.24 62.48 61.81 64.65 70.87 70.17 70.05 69.14 68.42 68.23 68.35 67.38 68.18 68.44 67.33 66.87 65.98 65.85 65.00 65.83 65.29 65.10 64.84 64.60 64.03 63.44 63.27 63.86 63.81 66.36 61.13 65.16 63.67 65.47 67.27 63.62 62.20 60.70
70.29 71.16 70.05 70.29 70.34 67.73 60.15 59.98 64.15 69.11 67.61 66.84 66.03 66.93 66.86 65.07 56.49 58.58 67.41 65.62 65.32 63.00 57.49 58.33 58.73 59.18 59.71 59.88 61.71 64.42 61.76 61.29 60.91 62.46 65.31 63.04 64.28 63.32 64.70 65.81 67.61 63.63 61.48
70.29 70.51 69.05 69.55 65.92 66.25 57.48 57.78 63.03 67.60 65.36 64.27 64.21 62.35 55.58 60.22 54.47 55.43 65.34 64.47 62.92 63.62 63.86 63.91 63.02 61.08 62.23 60.60 60.57 63.23 61.49 59.56 60.03 60.43 62.01 60.99 60.80 61.11 59.95 65.13 67.09 68.75 68.48
MSLP
1015.83 1015.79 1015.74 1015.81 1015.60 1015.28 1015.09 1015.09 1015.73 1015.46 1015.14 1014.99 1014.87 1014.87 1014.72 1014.53 1014.34 1014.25 1014.13 1015.14 1015.77 1016.16 1016.39 1016.32 1016.32 1016.47 1016.81 1017.04 1017.37 1017.64 1017.93 1018.14 1018.28 1018.45 1018.72 1018.84 1018.98 1019.23 1019.51 1019.66 1020.01 1020.22 1020.49
1015.55 1015.41 1015.44 1015.33 1015.13 1014.98 1014.78 1014.75 1014.71 1015.09 1014.80 1014.35 1014.36 1014.46 1014.51 1014.27 1014.03 1014.01 1013.75 1013.86 1014.95 1015.44 1015.83 1015.92 1015.93 1016.17 1016.53 1016.81 1017.08 1017.36 1017.61 1017.77 1017.90 1018.12 1018.32 1018.40 1018.54 1018.82 1019.12 1019.46 1019.57 1019.94 1020.16
1015.53 1015.78 1015.21 1015.04 1014.75 1014.82 1015.18 1014.89 1014.73 1014.59 1014.76 1013.99 1014.19 1014.13 1014.08 1014.06 1013.86 1014.05 1013.83 1013.54 1013.68 1014.72 1015.12 1015.53 1015.74 1016.02 1016.29 1016.61 1016.84 1017.15 1017.32 1017.41 1017.53 1017.76 1017.88 1018.05 1018.27 1018.53 1018.89 1019.09 1019.23 1019.47 1019.80
1015.32 1015.31 1014.93 1014.62 1014.48 1014.49 1014.46 1014.34 1014.22 1014.07 1014.07 1013.80 1013.70 1013.85 1013.88 1013.67 1013.57 1013.74 1013.66 1013.47 1013.43 1013.19 1014.62 1015.11 1015.45 1015.86 1016.04 1016.33 1016.60 1016.81 1016.93 1017.16 1017.25 1017.43 1017.62 1017.74 1017.92 1018.22 1018.53 1018.75 1018.82 1019.10 1019.23
1014.66 1014.80 1014.29 1013.94 1014.26 1014.07 1013.99 1014.10 1014.02 1014.07 1013.99 1014.27 1013.64 1013.65 1013.69 1013.48 1013.35 1013.05 1013.34 1013.41 1013.54 1013.51 1013.04 1014.52 1015.14 1015.47 1015.68 1016.03 1016.28 1016.49 1016.71 1016.92 1017.06 1017.21 1017.37 1017.56 1017.74 1017.92 1018.15 1018.23 1018.38 1018.63 1018.84
1014.25 1014.30 1013.88 1013.81 1013.97 1013.76 1013.64 1013.89 1014.17 1014.16 1014.10 1014.55 1013.80 1013.13 1013.33 1013.19 1012.91 1012.92 1012.93 1013.00 1013.06 1013.38 1013.23 1013.34 1014.48 1014.85 1015.33 1015.61 1015.98 1016.14 1016.33 1016.58 1016.74 1016.88 1017.07 1017.18 1017.32 1017.54 1017.69 1017.85 1018.09 1018.23 1018.43
1013.64 1013.75 1013.56 1013.50 1013.48 1013.66 1013.91 1014.13 1014.07 1013.93 1013.86 1013.37 1013.47 1012.72 1012.22 1012.37 1012.51 1012.46 1012.70 1012.62 1012.60 1013.03 1012.99 1013.11 1013.50 1013.55 1014.51 1015.25 1015.61 1015.77 1015.94 1016.18 1016.45 1016.59 1016.84 1016.99 1017.10 1017.32 1017.48 1017.52 1017.69 1017.91 1018.12
1013.15 1013.15 1013.30 1013.15 1013.17 1013.12 1013.68 1013.83 1014.00 1013.84 1013.40 1013.27 1013.41 1012.54 1011.77 1011.26 1011.78 1012.14 1012.43 1012.48 1012.56 1012.58 1012.84 1013.04 1013.22 1013.33 1013.35 1014.00 1014.72 1015.36 1015.53 1015.72 1016.10 1016.27 1016.50 1016.72 1016.96 1017.14 1017.34 1017.53 1017.71 1017.81 1017.95
1012.53 1012.61 1012.84 1013.03 1013.06 1013.19 1012.86 1013.17 1013.80 1013.80 1013.48 1013.50 1013.90 1013.37 1012.03 1011.27 1011.16 1011.45 1012.33 1012.30 1012.54 1012.51 1012.45 1012.64 1012.90 1013.12 1013.52 1013.34 1013.88 1014.73 1015.14 1015.37 1015.63 1015.95 1016.22 1016.54 1016.86 1017.17 1017.34 1017.53 1017.62 1017.72 1017.84
1011.89 1012.04 1012.23 1012.47 1012.67 1012.60 1012.37 1012.75 1012.86 1013.18 1013.39 1013.41 1013.30 1012.98 1013.23 1013.05 1012.28 1011.25 1011.49 1011.96 1012.29 1012.45 1012.34 1012.25 1012.27 1012.74 1013.04 1013.17 1013.26 1013.54 1014.30 1014.91 1015.23 1015.61 1015.86 1016.20 1016.62 1016.95 1017.18 1017.37 1017.50 1017.60 1017.70
1011.25 1011.40 1011.46 1011.90 1012.20 1012.33 1012.14 1012.28 1012.53 1012.83 1012.79 1012.89 1013.13 1012.76 1013.24 1013.19 1012.79 1012.47 1011.29 1010.71 1011.42 1011.61 1011.80 1012.01 1012.03 1011.96 1012.44 1012.70 1012.43 1012.94 1013.76 1014.33 1014.78 1015.07 1015.40 1015.64 1016.03 1016.42 1016.73 1017.01 1017.18 1017.27 1017.39
1010.22 1010.79 1010.88 1011.17 1011.39 1011.44 1011.58 1011.74 1011.95 1012.14 1012.49 1012.40 1012.46 1012.83 1012.60 1012.40 1012.06 1012.25 1011.69 1011.17 1010.73 1010.59 1011.01 1011.44 1011.57 1011.70 1011.81 1012.07 1012.28 1012.37 1013.14 1013.74 1014.28 1014.61 1014.87 1015.18 1015.55 1015.87 1016.15 1016.36 1016.60 1016.89 1017.01
1009.11 1009.47 1010.34 1010.73 1010.74 1010.97 1011.17 1011.54 1011.64 1012.12 1012.07 1012.11 1012.17 1012.41 1012.54 1011.67 1011.40 1011.32 1011.40 1011.11 1010.76 1010.35 1010.43 1010.86 1010.83 1010.94 1011.19 1011.45 1011.52 1012.18 1012.90 1013.30 1013.79 1014.17 1014.42 1014.64 1014.94 1015.33 1015.60 1015.76 1015.90 1016.22 1016.58
1008.29 1008.82 1009.50 1010.00 1010.18 1010.46 1010.81 1011.15 1011.45 1011.36 1011.42 1011.64 1011.70 1011.80 1011.76 1011.45 1010.95 1011.30 1011.24 1011.30 1010.93 1010.56 1010.64 1010.46 1010.44 1010.62 1010.59 1010.80 1011.04 1011.67 1012.05 1013.01 1013.52 1013.85 1014.14 1014.27 1014.52 1014.88 1015.15 1015.36 1015.49 1015.77 1016.08
1007.89 1008.34 1009.06 1009.45 1009.61 1009.82 1010.18 1010.43 1010.82 1010.91 1011.00 1010.85 1010.89 1011.27 1011.21 1011.20 1010.90 1010.48 1010.81 1010.80 1011.41 1010.73 1009.97 1009.56 1009.76 1010.39 1010.52 1010.70 1011.18 1011.78 1011.71 1012.58 1013.27 1013.66 1013.86 1014.03 1014.17 1014.42 1014.71 1014.91 1015.01 1015.22 1015.53
1007.81 1007.77 1008.33 1008.71 1008.95 1009.23 1009.71 1010.19 1010.14 1010.23 1010.45 1010.56 1010.58 1010.35 1010.47 1010.55 1010.61 1010.56 1010.79 1010.83 1010.92 1011.23 1010.52 1009.50 1009.53 1010.16 1010.72 1010.90 1011.61 1011.47 1011.71 1012.83 1013.20 1013.28 1013.46 1013.68 1013.82 1013.96 1014.16 1014.40 1014.67 1014.84 1014.94
1007.12 1007.82 1007.88 1008.07 1008.61 1008.87 1008.84 1009.03 1009.54 1010.10 1010.38 1010.11 1009.99 1010.11 1010.26 1010.10 1009.56 1009.84 1009.83 1010.00 1010.42 1010.52 1010.19 1009.43 1009.74 1010.58 1011.10 1011.13 1011.25 1011.81 1011.93 1011.95 1011.88 1012.74 1013.02 1013.19 1013.30 1013.39 1013.70 1013.78 1013.82 1014.01 1014.29
1006.62 1006.99 1007.28 1007.95 1008.50 1008.63 1008.66 1008.61 1008.03 1008.29 1009.27 1009.84 1009.63 1009.84 1009.97 1009.95 1009.65 1009.59 1009.64 1009.98 1010.33 1010.54 1010.42 1010.08 1010.42 1010.92 1011.01 1011.50 1011.87 1012.03 1011.94 1011.59 1011.50 1012.33 1012.71 1012.96 1013.09 1013.21 1013.21 1013.51 1013.54 1013.57 1013.75
1006.35 1006.72 1007.41 1007.79 1008.18 1008.61 1008.87 1009.09 1008.64 1009.01 1009.03 1009.41 1009.44 1009.61 1009.54 1009.60 1009.65 1009.66 1009.58 1009.94 1010.10 1010.30 1010.31 1010.31 1010.46 1010.77 1011.28 1011.58 1011.87 1011.91 1012.18 1012.21 1012.53 1012.50 1012.43 1012.36 1012.67 1012.85 1012.98 1013.09 1013.23 1013.44 1013.46
1006.36 1006.93 1007.40 1007.46 1007.79 1008.22 1008.61 1008.66 1008.91 1008.79 1009.48 1009.85 1009.72 1010.08 1010.23 1009.57 1009.56 1009.84 1010.04 1010.23 1010.10 1010.22 1010.33 1010.55 1010.97 1011.69 1011.87 1012.27 1011.91 1011.81 1012.36 1012.30 1012.64 1012.29 1012.30 1012.34 1011.97 1012.25 1012.10 1012.13 1012.38 1012.34 1012.76
1006.28 1006.79 1007.06 1007.34 1007.93 1008.04 1008.36 1008.53 1008.39 1009.01 1009.41 1009.64 1009.31 1010.22 1010.40 1010.48 1010.49 1010.29 1010.23 1010.09 1010.46 1010.59 1010.81 1011.03 1011.72 1012.42 1012.70 1012.79 1012.85 1012.82 1012.81 1012.73 1012.53 1012.29 1011.99 1011.75 1011.70 1011.46 1011.38 1011.60 1011.41 1012.05 1012.29
1005.74 1006.20 1006.63 1006.96 1007.47 1007.62 1008.57 1008.54 1008.67 1008.96 1008.48 1008.51 1009.38 1009.79 1010.62 1010.98 1010.90 1010.67 1010.59 1010.97 1010.82 1011.12 1011.62 1012.04 1012.79 1013.10 1013.46 1013.60 1013.51 1013.45 1013.36 1013.02 1012.33 1012.48 1012.08 1011.44 1011.48 1011.43 1011.47 1011.16 1010.93 1011.17 1011.74
1005.64 1005.82 1006.31 1006.82 1007.14 1007.67 1008.90 1008.82 1009.18 1008.45 1008.19 1008.46 1009.38 1009.81 1010.02 1010.65 1011.03 1011.19 1011.32 1011.38 1011.74 1011.80 1011.92 1012.45 1012.82 1013.25 1013.55 1013.94 1013.77 1013.71 1013.61 1013.38 1012.80 1012.41 1012.23 1011.37 1011.37 1011.13 1010.49 1010.39 1010.91 1011.06 1011.09
1005.50 1005.81 1006.19 1006.75 1007.15 1007.70 1008.64 1009.36 1009.54 1008.59 1008.55 1008.99 1009.79 1009.95 1010.17 1010.53 1010.99 1010.92 1010.85 1011.25 1011.74 1012.11 1012.32 1012.16 1012.25 1012.64 1013.20 1013.53 1013.39 1013.41 1013.44 1013.04 1012.47 1012.51 1012.42 1011.65 1011.47 1011.28 1010.91 1010.88 1011.04 1010.87 1010.58
1005.54 1005.60 1005.89 1006.46 1007.01 1007.76 1008.53 1009.24 1009.24 1008.82 1009.08 1009.57 1010.29 1010.46 1010.78 1011.27 1011.71 1011.53 1011.06 1011.45 1011.78 1012.07 1012.93 1013.05 1013.03 1013.35 1013.08 1012.80 1012.96 1012.47 1012.38 1012.26 1011.91 1012.03 1012.19 1011.93 1011.10 1011.20 1011.14 1010.86 1010.18 1010.05 1009.76
1005.55 1005.75 1006.27 1006.50 1006.88 1007.67 1008.46 1008.83 1009.04 1008.72 1009.10 1009.27 1010.46 1011.06 1011.51 1011.69 1012.13 1012.02 1011.39 1011.58 1011.89 1012.18 1012.43 1012.78 1013.16 1013.25 1012.92 1013.39 1013.09 1012.42 1012.23 1012.07 1012.01 1011.52 1012.85 1012.71 1012.13 1012.04 1011.35 1010.52 1010.38 1009.77 1009.58
Wind_Speed
6 5 5 5 5 5 5 4 2 5 5 6 7 7 8 8 9 6 5 15 12 13 14 14 12 11 13 15 15 15 14 14 14 14 14 14 14 13 13 13 12 13 14
6 6 6 7 6 5 5 5 5 3 7 5 6 7 7 8 8 8 7 8 15 13 12 13 10 11 12 13 13 13 13 14 14 14 14 15 14 14 14 13 13 13 15
7 7 7 6 6 4 6 7 5 5 7 6 5 6 6 8 6 7 8 8 8 13 11 13 11 12 12 12 13 13 13 13 13 13 14 14 13 13 14 14 15 14 14
9 8 8 7 6 5 6 6 6 6 6 6 5 5 6 7 7 7 8 7 6 5 9 10 11 11 12 12 12 12 11 11 11 11 12 13 13 13 14 15 15 14 14
10 9 8 7 6 7 6 6 5 5 4 7 7 6 6 7 7 8 7 8 9 7 6 14 12 12 13 12 12 12 11 11 11 11 12 12 12 13 13 14 14 13 13
10 9 9 9 7 7 5 6 6 7 5 6 9 7 6 7 7 6 6 8 9 10 10 9 10 10 13 13 13 12 12 11 11 11 11 11 11 10 12 12 12 12 12
11 9 9 9 8 8 4 8 8 8 5 5 6 7 8 8 9 7 6 7 8 9 9 9 7 7 10 13 13 13 13 13 12 12 11 10 10 9 9 11 10 10 10
13 11 10 9 9 8 5 8 8 8 6 3 7 6 7 3 5 5 5 5 7 7 8 9 10 9 7 10 13 14 14 14 14 13 12 11 10 10 10 10 9 9 8
14 13 12 10 10 9 10 6 7 7 6 6 7 5 7 3 3 6 6 5 5 7 7 8 9 10 10 8 10 14 16 15 15 15 14 12 10 10 10 10 10 9 9
14 14 13 12 11 10 9 6 9 6 5 7 7 7 6 8 7 6 5 5 5 7 7 7 9 11 10 10 12 11 20 16 16 16 16 15 14 13 12 12 11 10 10
13 13 13 13 12 11 10 9 9 8 9 6 6 6 5 7 7 8 8 3 6 6 5 8 9 9 11 11 10 11 16 17 16 16 16 16 17 16 15 14 13 11 11
10 13 13 11 12 11 12 10 9 11 9 9 6 6 7 7 8 5 9 8 7 6 3 6 7 8 9 10 11 6 18 17 17 17 16 16 16 17 17 16 15 14 13
10 10 10 11 10 12 11 8 8 9 8 10 9 8 8 10 8 8 6 9 9 7 3 5 6 7 9 9 10 12 14 15 16 15 15 16 17 18 17 17 17 16 15
11 10 9 11 12 10 8 7 6 6 8 7 11 10 8 10 8 8 8 9 8 8 7 9 5 6 6 7 3 14 10 13 14 13 14 14 15 15 17 17 15 15 15
10 9 9 10 11 8 7 5 6 7 8 8 9 9 9 10 11 8 9 8 7 8 10 3 3 5 5 7 4 7 10 11 11 11 12 13 13 15 15 16 16 14 14
12 10 11 11 11 7 4 1 5 6 8 9 11 12 9 9 11 9 8 7 7 7 8 8 1 3 2 4 8 8 5 7 10 10 10 11 13 15 15 15 14 15 15
11 12 12 12 11 10 8 5 2 9 12 12 11 13 15 12 10 8 10 8 8 8 10 7 0 6 4 5 6 6 6 8 8 13 10 11 11 12 13 16 17 17 17
13 15 14 13 13 10 8 6 2 2 6 11 10 11 14 11 12 7 6 7 8 6 6 8 3 4 1 3 4 3 4 6 5 10 7 10 10 9 9 12 13 13 15
14 15 15 15 12 8 6 1 4 4 5 6 8 11 14 14 12 4 4 6 7 5 6 6 4 2 2 3 4 3 3 3 2 2 7 7 8 9 11 13 13 14 12
12 14 15 12 11 5 3 1 3 1 3 3 5 6 7 9 5 4 4 3 2 3 4 4 2 4 2 3 4 3 4 4 1 3 2 0 2 7 10 11 13 13 14
14 15 14 10 5 4 4 6 5 5 7 5 4 2 4 3 3 4 2 3 4 3 1 1 2 4 1 1 2 3 3 3 5 1 4 2 2 5 7 9 8 15 13
13 12 11 9 7 6 10 6 6 8 7 4 3 4 4 3 3 8 11 11 7 5 3 1 2 3 3 2 3 3 3 2 3 6 3 3 5 5 6 9 5 8 11
11 10 9 8 8 6 7 9 7 5 4 7 6 5 4 6 5 7 10 11 9 9 8 4 4 4 4 4 3 4 3 3 3 4 2 4 5 8 4 4 8 7 10
9 9 9 7 7 7 8 4 8 6 6 7 5 3 4 4 5 4 6 7 7 6 5 5 5 6 4 3 3 3 2 3 4 5 4 4 4 3 4 3 12 7 6
9 9 8 10 9 8 10 9 8 6 8 9 7 5 5 6 5 8 4 5 3 4 8 8 9 9 8 7 3 3 3 3 2 2 4 5 5 8 8 7 5 5 6
8 7 8 9 8 10 9 9 10 8 10 9 9 8 10 7 6 7 1 4 4 2 1 7 8 8 7 6 5 5 3 3 4 3 4 5 7 7 6 5 6 8 6
Wind_Direction
231 242 253 261 273 274 268 248 244 267 235 245 238 236 241 243 248 245 248 168 194 219 234 236 228 217 206 209 209 211 215 216 217 214 216 218 219 221 221 223 223 225 222
235 256 245 252 261 265 285 295 316 320 273 234 231 235 243 250 239 254 244 193 184 206 221 235 222 198 203 201 209 212 211 216 219 220 219 223 223 221 223 226 226 225 224
226 262 262 262 265 264 269 245 259 242 284 248 232 264 244 251 262 251 252 253 184 194 214 224 203 187 194 203 210 214 213 214 222 219 220 223 227 224 227 228 230 231 227
240 250 254 250 253 264 264 272 270 277 248 286 276 254 244 251 254 253 250 253 236 248 168 183 182 186 193 205 206 213 217 208 214 215 216 216 217 223 225 227 230 227 226
242 246 256 256 244 262 262 272 283 275 284 289 278 245 255 256 234 229 237 241 243 256 213 166 187 188 188 206 206 206 208 207 209 204 208 216 217 221 224 225 227 225 224
246 251 254 259 265 261 271 277 284 296 305 251 281 279 262 268 246 248 245 231 224 221 230 191 181 199 192 200 208 206 205 206 203 199 201 206 213 217 217 222 223 224 223
242 244 255 256 243 259 295 271 265 252 291 257 277 266 242 240 250 239 231 243 230 215 231 221 224 213 180 197 205 204 201 202 199 195 195 200 206 210 212 210 203 211 217
240 241 246 260 271 281 255 252 252 282 287 268 281 308 268 219 204 222 240 242 251 230 221 217 217 224 227 184 201 200 198 195 198 196 195 194 197 191 193 192 187 188 189
234 232 244 252 271 271 275 220 254 244 286 284 260 293 304 309 2 149 201 239 228 236 224 220 224 216 218 227 162 189 198 197 196 195 192 191 188 189 189 189 190 195 197
232 233 234 241 248 264 283 276 245 270 252 279 269 227 273 305 296 296 164 186 215 234 231 239 221 220 220 222 205 199 183 195 196 195 192 189 193 194 198 200 203 206 209
227 237 232 241 245 245 243 244 256 242 259 228 290 295 292 279 252 274 286 247 185 205 238 222 242 232 210 233 213 201 175 191 197 194 194 192 195 200 205 208 210 209 208
223 221 240 232 234 238 243 251 249 236 235 261 247 233 265 267 252 211 264 254 279 278 234 232 225 226 226 214 234 188 178 189 198 198 195 196 199 203 208 208 211 214 211
235 232 214 234 230 227 248 262 264 260 246 248 256 247 238 248 268 289 289 285 283 282 227 246 233 218 216 224 226 201 183 193 198 199 199 199 203 206 208 209 208 209 213
242 226 216 229 223 240 252 258 257 258 264 260 262 262 253 258 266 249 260 268 291 284 274 263 215 231 221 224 273 164 207 194 201 201 206 206 208 210 211 213 212 206 210
242 217 216 226 220 221 236 270 274 290 288 280 269 254 251 256 258 240 239 256 242 273 288 169 237 181 222 195 168 212 216 182 211 216 213 216 215 214 214 212 210 200 203
234 242 191 209 212 201 183 328 308 315 314 293 288 281 252 233 241 243 234 257 252 244 262 281 175 82 256 247 145 210 155 161 223 224 216 217 219 220 219 214 212 207 205
224 219 201 188 180 177 158 154 292 302 304 294 288 282 274 257 238 227 221 222 241 237 242 262 169 98 194 221 162 223 195 213 200 203 216 224 218 218 224 220 213 212 212
212 207 192 182 179 180 187 216 221 307 298 297 293 282 269 263 247 243 216 211 226 235 251 250 209 175 183 122 90 202 328 280 291 134 203 234 231 232 227 237 231 219 213
213 198 187 189 191 190 190 299 13 316 301 292 304 298 284 253 238 183 186 199 218 227 208 248 190 178 95 161 191 234 143 188 279 282 234 215 213 221 233 239 242 237 227
201 203 209 204 201 203 206 64 240 20 303 80 61 19 6 334 147 137 175 185 252 217 205 245 73 83 14 19 320 163 191 205 187 262 240 227 97 213 221 223 224 214 217
216 216 224 229 218 168 216 197 138 181 161 179 93 26 31 15 340 157 197 169 211 206 353 19 63 75 77 50 49 6 355 11 218 304 341 252 339 259 200 217 238 219 216
223 219 226 231 209 194 153 153 172 195 167 123 155 105 152 156 82 65 73 56 48 97 88 84 97 107 88 21 357 11 284 345 308 102 307 269 209 258 292 304 12 161 204
225 215 205 196 198 172 143 153 214 209 140 111 141 134 157 109 136 110 101 106 91 97 102 128 142 143 141 205 187 203 178 227 242 293 312 296 354 303 319 275 229 236 207
198 204 194 192 175 148 139 166 212 165 126 116 117 144 102 139 61 148 128 125 132 129 134 154 129 123 114 156 198 229 225 213 218 256 247 260 199 243 219 249 279 253 250
206 198 188 182 187 146 145 176 206 157 125 110 100 100 126 108 42 355 125 114 135 139 111 82 83 94 94 93 15 261 55 312 320 289 39 329 330 346 316 279 245 93 337
210 202 170 181 160 150 156 172 207 153 141 124 135 125 55 61 21 3 299 182 202 111 330 142 131 130 129 95 50 60 49 349 332 300 53 321 327 329 315 281 334 324 315